Location: Newark
(40.7066°N, 111.8219°W)
Time: 04:03:59
(UTC+00:00)

deb Explorer IX - Pass Details

Date: 18 November 2019
Orbit: 545 x 1105 km, 38.8° (Epoch: 05 December)

Event Time Altitude Azimuth Distance (km) Brightness Sun altitude
Exits shadow 12:54:19 24° 260° (W) 1,446 ? -15.7°
Maximum altitude 12:57:00 46° 200° (SSW) 888 ? -15.2°
Drops below altitude 10° 13:01:17 10° 127° (SE) 1,947 ? -14.5°
Sets 13:03:30 0° 121° (ESE) 2,793 ? -14.0°
